When you browse on this site, cookies collect data to enhance your experience and personalize the content and advertising you see.
Visit our Privacy Policy to learn more. By continuing to use the site, you agree to this use of cookies and data.

Hourly Weather Sylhet

Today, 9 August, Sunday

Time Temperature Precipitation Wind Pressure Humidity
00:00 +29°C° 0 mm 1 mps 750 mmHg 90%
01:00 +29°C° 0 mm 1 mps 750 mmHg 91%
02:00 +28°C° 0 mm 1 mps 750 mmHg 91%
03:00 +28°C° 0 mm 1 mps 750 mmHg 92%
04:00 +28°C° 0.1 mm 1 mps 750 mmHg 92%
05:00 +28°C° 0.1 mm 1 mps 750 mmHg 93%
06:00 +29°C° 0 mm 1 mps 750 mmHg 91%
07:00 +30°C° 0.3 mm 1 mps 750 mmHg 87%
08:00 +31°C° 0.3 mm 2 mps 750 mmHg 83%
09:00 +32°C° 0.3 mm 2 mps 751 mmHg 79%
10:00 +34°C° 0.2 mm 2 mps 750 mmHg 74%
11:00 +35°C° 0.2 mm 2 mps 750 mmHg 68%
12:00 +36°C° 0 mm 2 mps 750 mmHg 63%
13:00 +36°C° 0.1 mm 2 mps 750 mmHg 63%
14:00 +36°C° 0.1 mm 2 mps 749 mmHg 62%
15:00 +35°C° 0.1 mm 1 mps 748 mmHg 62%
16:00 +35°C° 1 mm 2 mps 748 mmHg 69%
17:00 +34°C° 1 mm 2 mps 748 mmHg 76%
18:00 +31°C° 0 mm 1 mps 749 mmHg 82%
19:00 +31°C° 0.1 mm 1 mps 749 mmHg 84%
20:00 +30°C° 0.1 mm 2 mps 750 mmHg 86%
21:00 +30°C° 0.1 mm 2 mps 751 mmHg 88%
22:00 +29°C° 0.5 mm 2 mps 751 mmHg 89%
23:00 +29°C° 0.5 mm 2 mps 751 mmHg 90%

Tomorrow, 10 August, Monday

Time Temperature Precipitation Wind Pressure Humidity
00:00 +29°C° 0.5 mm 2 mps 751 mmHg 91%
01:00 +29°C° 1 mm 2 mps 751 mmHg 91%
02:00 +28°C° 1 mm 2 mps 751 mmHg 92%
03:00 +28°C° 1 mm 2 mps 751 mmHg 92%
04:00 +28°C° 0.8 mm 2 mps 751 mmHg 92%
05:00 +28°C° 0.8 mm 2 mps 751 mmHg 92%
06:00 +28°C° 0.8 mm 2 mps 751 mmHg 91%
07:00 +29°C° 0.2 mm 2 mps 752 mmHg 89%
08:00 +29°C° 0.2 mm 2 mps 752 mmHg 87%
09:00 +30°C° 0.2 mm 2 mps 753 mmHg 85%
10:00 +31°C° 0.2 mm 2 mps 752 mmHg 82%
11:00 +32°C° 0.2 mm 1 mps 752 mmHg 78%
12:00 +33°C° 0.2 mm 1 mps 752 mmHg 74%
13:00 +33°C° 1.3 mm 1 mps 751 mmHg 74%
14:00 +34°C° 1.3 mm 2 mps 751 mmHg 73%
15:00 +34°C° 1.3 mm 2 mps 750 mmHg 73%
16:00 +32°C° 1.6 mm 2 mps 750 mmHg 78%
17:00 +31°C° 1.6 mm 2 mps 750 mmHg 83%
18:00 +30°C° 1.6 mm 2 mps 749 mmHg 88%
19:00 +30°C° 0.6 mm 2 mps 750 mmHg 89%
20:00 +29°C° 0.6 mm 2 mps 751 mmHg 89%
21:00 +29°C° 0.6 mm 2 mps 751 mmHg 90%
22:00 +29°C° 1.3 mm 2 mps 751 mmHg 90%
23:00 +29°C° 1.3 mm 2 mps 751 mmHg 91%

Day after tomorrow, 11 August, Tuesday

Time Temperature Precipitation Wind Pressure Humidity
00:00 +29°C° 1.3 mm 2 mps 751 mmHg 91%
01:00 +28°C° 1.8 mm 2 mps 751 mmHg 92%
02:00 +28°C° 1.8 mm 2 mps 750 mmHg 93%
03:00 +28°C° 1.8 mm 3 mps 750 mmHg 94%
04:00 +28°C° 1.7 mm 3 mps 750 mmHg 94%
05:00 +28°C° 1.7 mm 2 mps 750 mmHg 95%
06:00 +28°C° 1.7 mm 2 mps 750 mmHg 95%
07:00 +28°C° 0.7 mm 2 mps 751 mmHg 94%
08:00 +28°C° 0.7 mm 2 mps 751 mmHg 92%
09:00 +29°C° 0.7 mm 2 mps 751 mmHg 90%
10:00 +29°C° 0.5 mm 2 mps 751 mmHg 88%
11:00 +30°C° 0.5 mm 2 mps 751 mmHg 85%
12:00 +31°C° 0.5 mm 2 mps 751 mmHg 83%
13:00 +31°C° 0.9 mm 2 mps 750 mmHg 80%
14:00 +32°C° 0.9 mm 2 mps 750 mmHg 78%
15:00 +34°C° 0.9 mm 2 mps 749 mmHg 75%
16:00 +32°C° 1.9 mm 2 mps 749 mmHg 79%
17:00 +31°C° 1.9 mm 2 mps 749 mmHg 83%
18:00 +31°C° 1.9 mm 2 mps 749 mmHg 87%
19:00 +30°C° 1 mm 2 mps 750 mmHg 88%
20:00 +29°C° 1 mm 2 mps 751 mmHg 90%
21:00 +29°C° 1 mm 3 mps 752 mmHg 91%
22:00 +28°C° 0.9 mm 3 mps 752 mmHg 92%
23:00 +28°C° 0.9 mm 2 mps 752 mmHg 93%

12 August, Wednesday

Time Temperature Precipitation Wind Pressure Humidity
00:00 +28°C° 0.9 mm 2 mps 752 mmHg 93%
01:00 +28°C° 0.7 mm 2 mps 751 mmHg 94%
02:00 +28°C° 0.7 mm 2 mps 751 mmHg 94%
03:00 +27°C° 0.7 mm 2 mps 750 mmHg 95%
04:00 +27°C° 0.2 mm 2 mps 750 mmHg 94%
05:00 +27°C° 0.2 mm 1 mps 750 mmHg 94%
06:00 +27°C° 0.2 mm 1 mps 751 mmHg 94%
07:00 +29°C° 0 mm 2 mps 751 mmHg 88%
08:00 +30°C° 0 mm 2 mps 751 mmHg 82%
09:00 +31°C° 0 mm 2 mps 752 mmHg 76%
10:00 +32°C° 0.1 mm 2 mps 751 mmHg 72%
11:00 +34°C° 0.1 mm 2 mps 751 mmHg 68%
12:00 +34°C° 0.1 mm 1 mps 751 mmHg 64%
13:00 +35°C° 0.2 mm 1 mps 750 mmHg 64%
14:00 +35°C° 0.2 mm 1 mps 749 mmHg 63%
15:00 +36°C° 0.2 mm 2 mps 749 mmHg 63%
16:00 +35°C° 1.1 mm 2 mps 749 mmHg 69%
17:00 +34°C° 1.1 mm 2 mps 749 mmHg 76%
18:00 +32°C° 1.1 mm 2 mps 748 mmHg 82%
19:00 +31°C° 0.7 mm 2 mps 749 mmHg 85%
20:00 +30°C° 0.7 mm 2 mps 750 mmHg 87%
21:00 +29°C° 0.7 mm 2 mps 751 mmHg 90%
22:00 +29°C° 0.3 mm 2 mps 751 mmHg 91%
23:00 +29°C° 0.3 mm 2 mps 751 mmHg 92%

13 August, Thursday

Time Temperature Precipitation Wind Pressure Humidity
00:00 +28°C° 0.3 mm 1 mps 751 mmHg 93%
01:00 +28°C° 0.1 mm 1 mps 750 mmHg 93%
02:00 +28°C° 0.1 mm 1 mps 750 mmHg 93%
03:00 +28°C° 0.1 mm 1 mps 750 mmHg 93%
04:00 +28°C° 0 mm 1 mps 750 mmHg 93%
05:00 +28°C° 0 mm 1 mps 750 mmHg 93%
06:00 +28°C° 0 mm 1 mps 750 mmHg 93%
07:00 +29°C° 0 mm 2 mps 750 mmHg 86%
08:00 +31°C° 0 mm 2 mps 750 mmHg 79%
09:00 +32°C° 0 mm 2 mps 751 mmHg 73%
10:00 +34°C° 0 mm 2 mps 750 mmHg 69%
11:00 +35°C° 0 mm 2 mps 750 mmHg 65%
12:00 +36°C° 0 mm 2 mps 749 mmHg 61%
13:00 +35°C° 0 mm 1 mps 749 mmHg 60%
14:00 +36°C° 0 mm 1 mps 748 mmHg 59%
15:00 +36°C° 0 mm 1 mps 747 mmHg 58%
16:00 +35°C° 0.2 mm 1 mps 747 mmHg 63%
17:00 +34°C° 0.2 mm 1 mps 747 mmHg 69%
18:00 +34°C° 0.2 mm 2 mps 747 mmHg 74%
19:00 +32°C° 0.5 mm 2 mps 748 mmHg 78%
20:00 +31°C° 0.5 mm 2 mps 748 mmHg 82%
21:00 +30°C° 0.5 mm 2 mps 749 mmHg 86%
22:00 +29°C° 0.8 mm 2 mps 749 mmHg 87%
23:00 +29°C° 0.8 mm 2 mps 749 mmHg 88%

14 August, Friday

Time Temperature Precipitation Wind Pressure Humidity
00:00 +29°C° 0.8 mm 3 mps 750 mmHg 90%
01:00 +29°C° 0.6 mm 2 mps 749 mmHg 91%
02:00 +28°C° 0.6 mm 2 mps 749 mmHg 92%
03:00 +28°C° 0.6 mm 2 mps 748 mmHg 93%
04:00 +28°C° 0.4 mm 2 mps 749 mmHg 93%
05:00 +28°C° 0.4 mm 1 mps 749 mmHg 93%
06:00 +28°C° 0.4 mm 1 mps 749 mmHg 93%
07:00 +29°C° 0.8 mm 2 mps 750 mmHg 88%
08:00 +30°C° 0.8 mm 2 mps 750 mmHg 83%
09:00 +33°C° 0.8 mm 3 mps 751 mmHg 78%
10:00 +33°C° 0.8 mm 3 mps 750 mmHg 76%
11:00 +34°C° 0.8 mm 3 mps 750 mmHg 74%
12:00 +35°C° 0.8 mm 3 mps 749 mmHg 72%
13:00 +34°C° 1.9 mm 2 mps 749 mmHg 73%
14:00 +34°C° 1.9 mm 2 mps 748 mmHg 74%
15:00 +34°C° 1.9 mm 2 mps 748 mmHg 75%
16:00 +34°C° 1.4 mm 2 mps 748 mmHg 78%
17:00 +32°C° 1.4 mm 2 mps 747 mmHg 82%
18:00 +31°C° 1.4 mm 2 mps 747 mmHg 86%
19:00 +30°C° 0.8 mm 2 mps 748 mmHg 87%
20:00 +30°C° 0.8 mm 2 mps 749 mmHg 89%
21:00 +29°C° 0.8 mm 1 mps 750 mmHg 90%
22:00 +29°C° 1.3 mm 2 mps 750 mmHg 90%
23:00 +29°C° 1.3 mm 2 mps 750 mmHg 91%
Show more